This demonstration page uses our WeatherBlox Daily Observations layout. Learn more.

Left ArrowRight Arrow

39.08367, -84.50855

Hourly Observations for May 14, 2021

Temp ( °F °C ) Dew Point ( °F °C ) Humidity (%) Winds ( mph kmh ) Pressure ( in mb ) Visibility ( mi km ) Precip ( " mm )
12:53 am 00:53 Clear 44 6.7 40 4.4 85 85 N N/A 30.33 1027 10 16.0934 N/A
1:53 am 01:53 Clear 41 5 40 4.4 96 96 N N/A 30.33 1027 10 16.0934 N/A
2:53 am 02:53 Clear 40 4.4 40 4.4 100 100 N N/A 30.32 1027 10 16.0934 N/A
3:53 am 03:53 Clear 39 3.9 38 3.3 96 96 N N/A 30.32 1027 9 14.48406 N/A
4:53 am 04:53 Clear 38 3.3 37 2.8 97 97 N N/A 30.33 1027 10 16.0934 N/A
5:53 am 05:53 Clear 38 3.3 38 3.3 100 100 N N/A 30.34 1027 9 14.48406 N/A
6:53 am 06:53 Sunny 37 2.8 37 2.8 100 100 NE 3 6 30.35 1028 9 14.48406 N/A
7:53 am 07:53 Sunny 43 6 N/A N/A N N/A 30.37 1028 10 16.0934 N/A
8:53 am 08:53 Sunny 50 10 43 6.1 77 77 N N/A 30.38 1029 10 16.0934 N/A
9:53 am 09:53 Sunny 59 15 43 6.1 56 56 NE 3 6 30.37 1028 10 16.0934 N/A
10:53 am 10:53 Sunny 64 17.8 37 2.8 37 37 N N/A 30.36 1028 10 16.0934 N/A
11:53 am 11:53 Partly Cloudy 68 20 35 1.7 30 30 VRB 3 6 30.35 1028 10 16.0934 N/A
12:53 pm 12:53 Sunny 68 20 31 -0.6 25 25 NE 7 11 30.34 1028 10 16.0934 N/A
1:53 pm 13:53 Mostly Sunny 67 19.4 33 0.6 28 28 ENE 5 7 30.32 1027 10 16.0934 N/A
2:53 pm 14:53 Sunny 70 21.1 33 0.6 26 26 VRB 5 7 30.3 1026 10 16.0934 N/A
3:53 pm 15:53 Sunny 71 21.7 34 1.1 26 26 undefined N/A 30.29 1026 10 16.0934 N/A
4:53 pm 16:53 Sunny 69 20.6 34 1.1 27 27 N N/A 30.28 1025 10 16.0934 N/A
5:53 pm 17:53 Partly Cloudy 70 21.1 36 2.2 29 29 N N/A 30.27 1025 10 16.0934 N/A
6:53 pm 18:53 Mostly Sunny 69 20.6 35 1.7 29 29 N N/A 30.26 1025 10 16.0934 N/A
7:53 pm 19:53 Sunny 68 20 31 -0.6 25 25 N N/A 30.25 1024 10 16.0934 N/A
8:53 pm 20:53 Clear 63 17.2 30 -1.1 29 29 N N/A 30.26 1025 10 16.0934 N/A
9:53 pm 21:53 Clear 56 13.3 43 6.1 62 62 N N/A 30.27 1025 10 16.0934 N/A
10:53 pm 22:53 Clear 50 10 43 6.1 77 77 N N/A 30.28 1026 10 16.0934 N/A
11:53 pm 23:53 Clear 47 8.3 42 5.6 83 83 N N/A 30.28 1025 10 16.0934 N/A

Powered by AerisWeather